Regional Weather Roundup
Issued by NWS

Home | Current Version | Previous Version | Graphics & Text | Print | Product List | Glossary On
Versions: 1 2 3 4 5 6 7 8 9 10 11 12 13 14 15 16 17 18 19 20 21 22 23 24 25 26 27 28 29 30 31 32 33 34 35 36 37 38 39 40 41 42 43 44 45 46 47 48 49 50
099
ASUS43 KDTX 271510
RWRMI
MICHIGAN HOURLY REGIONAL WEATHER ROUNDUP
NATIONAL WEATHER SERVICE DETROIT/PONTIAC MI
1100 AM EDT TUE SEP 27 2016

NOTE: "FAIR" INDICATES FEW OR NO CLOUDS BELOW 12,000 FEET WITH NO
SIGNIFICANT WEATHER AND/OR OBSTRUCTION TO VISIBILITY.

MIZ047>049-052>055-059>063-066>070-074>076-081>083-271600-
SOUTHEAST LOWER MICHIGAN

CITY           SKY/WX    TMP DP  RH WIND       PRES   REMARKS
ADRIAN         SUNNY     60  44  55 W15       29.82F
ALMA           MOSUNNY   60  49  67 SW14      29.71S
ANN ARBOR      SUNNY     61  43  51 S14       29.78F
BAD AXE        PTSUNNY   58  46  64 SW10      29.71S
CARO           CLOUDY    61  47  60 SW14      29.70F
DETROIT CITY   SUNNY     62  43  49 SW15      29.78F
DETROIT        MOSUNNY   61  44  53 SW18G24   29.80S
FLINT          SUNNY     62  47  57 SW14G22   29.73F
GROSSE ILE     SUNNY     62  42  46 SW10G16   29.79F
HILLSDALE      SUNNY     61  37  41 SW9G23    29.80F
HOWELL         SUNNY     61  46  56 W13G22    29.75S

CITY           SKY/WX    TMP DP  RH WIND       PRES   REMARKS
JACKSON        SUNNY     61  44  53 SW16G26   29.78S
LAMBERTVILLE   SUNNY     64  43  47 SW10G20   29.82F
LANSING        MOSUNNY   62  45  53 W24G33    29.74S
LAPEER         FAIR      63  45  51 SW16G23   29.73F
MASON          SUNNY     60  46  58 SW10G21   29.75F
MONROE         SUNNY     63  44  49 SW14G20   29.80F
MT. CLEMENS    MOSUNNY   64  44  48 SW12      29.75S
PONTIAC        MOSUNNY   60  43  53 SW16G23   29.75F
PORT HURON     SUNNY     61  45  55 SW10      29.75F
TRI CITIES     MOSUNNY   59  47  64 SW13      29.71S
MIDLAND        PTSUNNY   59  47  64 SW10G16   29.68F
TROY           SUNNY     62  40  45 S10       29.78F
SAGINAW HB     PTSUNNY   59  45  58 SW13      29.70F
$$
MIZ043>046-050>051-056>058-064>065-071>073-077>080-271600-
SOUTHWEST LOWER MICHIGAN

CITY           SKY/WX    TMP DP  RH WIND       PRES   REMARKS
BATTLE CREEK   SUNNY     63  47  55 W18G29    29.77S
BENTON HARBOR  SUNNY     65  40  39 W25G31    29.80R
BIG RAPIDS     CLOUDY    58  49  71 SW9G16    29.67S
COLDWATER      SUNNY     61  40  45 SW15G22   29.81S
FREMONT        CLOUDY    57  41  55 W16G22    29.70R
HOLLAND        PTSUNNY   63  44  50 W21G31    29.75S
GRAND RAPIDS   PTSUNNY   61  43  51 W17G28    29.74R
IONIA          PTSUNNY   59  43  55 W25G32    29.72R
KALAMAZOO      MOSUNNY   63  46  54 W12G23    29.79R
LUDINGTON      CLOUDY    56  48  72 W13       29.66S
MARSHALL       SUNNY     60  46  57 SW17G23   29.77F
MOUNT PLEASANT MOSUNNY   59  47  63 SW10G16   29.68S
MUSKEGON       PTSUNNY   59  44  57 W17G29    29.72R
SOUTH HAVEN    SUNNY     65  42  44 W18G28    29.78R
$$
MIZ016>042-271600-
NORTHERN LOWER MICHIGAN

CITY           SKY/WX    TMP DP  RH WIND       PRES   REMARKS
ALPENA         PTSUNNY   59  46  62 S7        29.61F
BEAVER ISLAND  CLOUDY    56  49  76 W21G29    29.54S
BELLAIRE       LGT RAIN  54  51  89 CALM      29.60S
CADILLAC       DRIZZLE   52  47  82 SW12      29.64R
CHARLEVOIX     RAIN      54  49  86 W20       29.60R
FRANKFORT      CLOUDY    57  47  67 W14G21    29.62S
GAYLORD        LGT RAIN  52  48  86 SW13G21   29.60S
GRAYLING       CLOUDY    55  48  79 SW7       29.63S
HARBOR SPRINGS LGT RAIN  54  52  92 SW15G21   29.56S
HOUGHTON LAKE  CLOUDY    54  45  71 SW12      29.65S
MANISTEE       LGT RAIN  55  49  80 W15G22    29.64R
OSCODA         CLOUDY    57  46  66 SW12      29.65S
PELLSTON       LGT RAIN  55  51  86 W7        29.56R
ROGERS CITY    CLOUDY    57  47  71 SW8G16    29.59S
TRAVERSE CITY  LGT RAIN  56  48  74 SW6       29.60S
$$
MIZ007>008-015-271600-
EASTERN UPPER MICHIGAN

CITY           SKY/WX    TMP DP  RH WIND       PRES   REMARKS
KINROSS        CLOUDY    56  47  71 W12       29.53R
MACKINAC ISLAN RAIN      53  53  97 W15G21    29.54R
NEWBERRY       CLOUDY    54  49  83 SW14      29.51S
S. S. MARIE    CLOUDY    56  48  74 S6        29.52R
MUNISING         N/A     53  50  89 W7        29.51R
$$
MIZ004>006-011>014-085-271600-
CENTRAL UPPER MICHIGAN

CITY           SKY/WX    TMP DP  RH WIND       PRES   REMARKS
MANISTIQUE     CLOUDY    55  47  76 SW8       29.53R
ESCANABA       CLOUDY    54  48  80 W13G21    29.55S
MENOMINEE      CLOUDY    55  45  67 W8G21     29.60S
SAWYER-GWINN   CLOUDY    50  46  87 W9        29.53R
$$
MIZ001>003-009>011-084-271600-
WESTERN UPPER MICHIGAN

CITY           SKY/WX    TMP DP  RH WIND       PRES   REMARKS
IRON MOUNTAIN  CLOUDY    51  46  83 W13G20    29.56R
HOUGHTON       LGT RAIN  49  46  90 NW17      29.51R
COPPER HARBOR    N/A     52  50  93 N21       29.47R
IRONWOOD       RAIN      48  46  93 W14G21    29.63R
$$

ABBREVIATIONS USED IN REMARKS
   TC - TEMPERATURE IN CELSIUS
  WCI - WIND CHILL INDEX
   HX - HEAT INDEX
  VSB - VISIBILITY





USA.gov is the U.S. government's official web portal to all federal, state and local government web resources and services.